{"data":{"norad_id":54826,"intl_designator":"2022-177G","name":"STARLINK-5107","alt_names":[],"object_type":"PAYLOAD","status":"ACTIVE","operator":null,"country":"US","launch_date":"2022-12-28","launch_site_code":"AFETR","launch_vehicle":null,"mission":null,"orbit_class":"UNKNOWN","rcs_meters":null,"size_class":null,"mass_kg":null,"dimensions":null,"purposes":["comms"],"wikipedia_slug":null,"has_3d_model":false,"image_url":null,"decayed_at":null,"tle_current":{"epoch":"2026-05-25T03:11:49.401024Z","epoch_age_seconds":77717,"freshness":"FRESH","line1":"1 54826U 22177G   26145.13321066 -.00000190  00000+0  26040-5 0  9991","line2":"2 54826  43.0010  64.4085 0000946 250.5455 109.5294 15.27575295188619","mean_motion":15.27575295,"eccentricity":9.46e-5,"inclination_deg":43.001,"raan_deg":64.4085,"arg_perigee_deg":250.5455,"mean_anomaly_deg":109.5294,"bstar":2.604e-6,"rev_number":18861,"period_min":94.26703905944,"perigee_km":482.41411500097,"apogee_km":483.71225407589,"semimajor_km":6861.2001845384,"source":"CELESTRAK","updated_at":"2026-05-25T13:38:17.721167Z"}}}